Theta_e
301 295 295 294 295 293 296 296 295 295 294 293 294 294 292 292 293 296 297 297 296 293 292 292 292 292 292 294 293 294 294 293 291 290 290 290 291 291 291 289 289 289 289 292 293 293 293 293 293 294 294 293 293 294 294 295 295 294 295 297 297 298 297 296 296 297 298 297 298 299 299 298 300 301 303 304 306 309 314 318 320 322 322 323 324 323
300 296 297 296 294 295 296 296 295 295 295 294 293 293 292 293 290 295 295 297 297 291 290 293 291 292 293 293 292 293 292 290 289 289 289 290 290 289 288 288 288 289 291 292 291 292 292 292 293 293 293 293 291 292 293 293 293 293 294 294 295 296 297 297 296 296 297 298 298 298 298 298 298 299 300 302 304 306 311 314 317 319 320 324 322 322
296 295 295 294 295 296 296 295 295 294 293 294 292 292 291 292 294 294 295 296 294 292 290 292 290 291 292 291 291 290 289 290 290 290 289 289 288 288 288 288 288 288 289 289 290 291 291 292 292 292 292 292 292 292 292 293 293 294 293 293 294 294 295 296 296 296 295 297 298 298 299 299 298 300 301 302 304 306 307 313 316 318 320 321 322 323
292 296 294 296 297 294 295 295 295 294 295 293 294 291 289 293 289 287 293 293 293 292 290 291 289 291 290 290 289 289 288 288 289 290 290 289 287 287 287 287 287 287 288 288 289 289 290 290 291 291 291 292 292 292 292 292 292 292 293 294 294 294 294 295 296 297 296 297 298 299 300 299 299 298 300 301 301 302 302 304 310 314 317 319 319 321
292 295 295 296 296 295 294 295 294 293 291 294 295 293 292 290 289 288 288 291 293 292 293 291 289 288 288 287 286 287 289 288 288 289 289 289 289 289 289 289 289 287 287 288 288 288 289 289 290 290 291 291 291 291 292 292 292 292 292 293 294 294 295 295 296 296 296 296 296 298 299 300 298 297 298 298 298 299 299 301 305 309 312 313 316 320
294 295 297 295 296 295 295 293 295 293 289 291 295 292 290 289 288 289 291 289 288 288 291 288 281 283 289 289 286 287 287 286 287 287 287 287 287 287 287 287 288 289 289 288 288 288 288 288 289 290 290 290 291 291 291 292 292 292 292 293 293 293 294 295 295 295 296 295 294 294 295 295 295 294 294 294 295 296 297 298 302 307 310 311 312 315
292 293 297 296 295 295 295 293 295 293 290 289 290 290 290 289 289 289 288 288 283 281 288 291 281 279 288 288 286 287 286 285 286 286 286 286 286 286 286 287 287 287 287 288 288 288 288 288 288 289 289 290 290 291 292 292 292 292 292 293 293 293 294 295 295 296 295 294 294 293 293 296 295 294 294 296 297 297 298 299 299 302 307 311 312 313
293 294 295 296 294 294 292 290 294 293 290 287 290 291 289 289 288 288 288 288 285 290 290 290 287 281 281 287 290 288 285 284 284 285 285 286 286 286 286 287 287 287 287 287 287 287 288 288 288 288 289 290 290 291 292 292 292 292 292 292 292 293 293 294 294 294 295 294 294 293 293 293 295 296 295 296 296 298 299 300 299 300 303 307 310 312
293 295 295 293 294 291 290 293 293 295 290 289 290 291 289 289 289 289 289 287 287 285 281 286 289 282 282 287 289 287 285 284 283 283 284 285 285 286 286 286 287 287 287 288 287 287 287 288 288 289 289 290 290 291 291 291 291 292 292 292 292 292 292 292 294 294 294 294 293 294 293 292 293 296 297 296 297 296 297 298 299 300 301 303 306 308
294 293 293 294 291 289 293 291 291 292 289 292 291 292 293 292 291 291 288 286 285 282 278 283 287 280 281 287 285 287 285 282 282 283 284 284 285 285 285 286 287 287 287 288 288 287 288 288 288 289 290 290 290 291 292 292 292 292 292 292 292 291 292 292 292 293 293 294 294 293 293 293 292 294 296 297 296 296 297 297 298 299 300 301 302 304
293 296 296 293 292 294 292 291 293 289 290 292 292 291 290 290 289 289 288 285 282 277 281 286 287 284 276 284 285 283 283 281 282 283 284 285 285 285 286 286 286 286 287 287 287 287 288 289 289 289 289 289 290 291 291 292 291 291 291 290 290 291 292 292 292 292 292 293 293 293 293 293 293 293 294 295 296 295 296 296 297 298 298 299 300 302
294 294 294 294 295 294 294 292 293 293 293 292 289 287 287 286 288 285 285 285 277 277 282 284 282 283 274 279 282 283 283 283 282 281 282 283 283 284 285 286 286 286 286 286 286 287 287 288 288 289 288 289 289 290 290 290 290 290 292 291 290 290 291 291 291 292 292 291 293 293 293 292 293 293 293 294 295 295 295 295 296 298 298 298 298 300
290 291 293 294 293 294 293 292 293 291 293 289 288 287 281 279 280 277 281 275 278 277 281 282 281 277 278 282 282 282 283 283 284 283 283 283 283 284 285 285 286 286 286 286 286 286 286 286 287 287 287 288 289 289 290 290 291 290 289 289 288 288 290 290 290 291 291 291 291 291 292 292 293 293 292 294 295 296 295 295 295 296 296 297 296 297
290 291 292 293 293 292 293 287 288 287 287 287 285 283 280 276 275 272 275 278 278 282 283 281 283 275 281 283 285 283 283 284 284 284 285 284 284 284 285 285 286 286 286 286 286 286 286 286 287 287 287 288 288 288 288 288 288 289 288 288 287 287 288 289 289 289 290 290 291 291 292 292 292 292 293 293 295 296 296 296 296 296 296 296 296 296
284 285 288 290 287 291 291 289 287 286 285 285 287 284 282 279 275 270 274 272 273 275 279 283 276 275 276 280 284 284 285 285 285 285 285 285 285 285 285 286 285 285 285 286 286 286 286 287 287 287 287 287 287 288 288 288 287 286 287 286 286 286 285 284 286 289 290 290 291 291 292 292 293 292 293 293 296 296 295 296 296 296 297 297 296 297
286 286 288 288 288 289 288 289 290 288 286 285 287 286 281 279 284 275 277 275 274 273 273 277 275 281 280 284 285 285 285 285 285 285 284 284 285 285 284 284 284 285 285 285 285 285 286 286 287 287 287 287 287 286 287 286 287 285 284 282 282 281 283 282 282 284 284 288 291 292 291 292 292 292 293 293 295 296 296 296 297 297 297 297 297 297
286 283 287 288 289 286 286 288 289 290 280 284 283 280 282 284 282 277 277 279 276 275 272 279 278 282 283 283 283 284 283 283 284 283 283 283 284 284 283 284 284 284 285 285 285 285 286 287 287 288 287 287 287 286 285 285 284 283 281 280 281 283 282 280 281 282 286 286 286 285 287 291 291 292 292 292 293 296 297 297 297 297 297 297 297 297
284 285 287 287 284 285 287 287 288 286 288 283 279 280 284 285 281 277 271 275 273 270 272 277 274 277 278 274 282 282 281 282 282 282 282 283 283 282 283 283 284 284 285 285 285 286 286 286 285 285 285 285 285 284 283 283 283 282 282 284 282 280 283 284 280 280 282 281 280 283 286 286 291 292 292 293 293 294 295 296 297 297 297 297 297 296
288 281 286 286 286 285 287 288 285 286 287 283 281 286 279 273 273 278 273 267 269 269 271 275 277 277 278 277 279 280 279 280 281 281 281 281 282 282 282 283 284 285 284 284 283 284 285 285 285 285 285 285 285 284 283 283 282 282 281 280 282 282 280 280 282 283 280 279 281 282 284 287 286 290 292 293 294 294 295 296 296 296 296 297 297 295
290 280 282 283 284 285 285 286 279 281 285 284 285 282 285 280 277 274 276 274 274 269 270 271 275 272 280 280 280 280 280 280 280 280 280 281 282 282 282 283 283 284 284 284 284 284 284 284 284 284 283 283 282 282 281 280 280 279 279 281 281 280 282 281 279 281 283 281 279 280 282 284 286 285 290 293 293 293 295 296 296 296 296 296 296 295
284 287 278 282 283 284 279 283 281 283 278 279 279 279 279 279 281 279 277 273 272 269 269 269 267 274 278 281 280 280 281 281 280 280 281 281 282 282 283 283 283 283 282 282 283 284 283 283 283 284 283 282 282 281 281 280 278 278 279 278 277 276 276 279 280 280 278 278 279 279 280 281 281 283 284 288 293 293 294 296 296 296 296 296 296 295
282 283 278 279 278 279 282 284 283 282 284 281 280 278 279 276 273 271 269 277 271 271 268 268 267 275 280 282 282 282 282 282 282 281 281 282 282 282 283 284 284 283 283 283 283 283 283 282 282 282 282 282 280 279 279 279 281 280 277 278 279 276 276 277 276 279 282 279 277 278 279 279 281 281 283 284 287 292 293 296 296 296 296 295 295 295
284 284 282 278 280 281 282 282 283 283 283 283 282 279 281 279 278 273 267 271 272 273 274 272 268 271 281 283 282 282 283 282 282 282 281 282 282 282 283 283 283 283 282 283 282 282 282 282 281 281 280 280 279 278 278 277 276 276 278 277 277 280 278 277 278 277 277 276 276 277 278 279 280 281 282 283 283 285 293 294 295 296 296 295 295 295
287 280 278 280 281 279 280 282 283 283 282 280 281 281 279 276 277 275 274 276 272 273 270 271 268 272 279 284 284 284 284 283 283 283 281 282 282 282 283 283 283 283 283 283 282 281 281 281 280 280 279 278 277 278 278 278 278 279 276 277 277 276 278 278 276 278 280 279 276 276 276 278 278 280 281 282 283 283 285 293 294 296 295 295 294 294
279 282 278 275 276 277 276 278 279 280 281 278 277 280 280 280 279 279 278 277 270 272 272 269 264 270 280 282 284 284 283 282 282 282 282 281 282 282 282 282 282 282 282 282 281 280 280 279 278 278 278 278 277 275 274 276 277 276 276 276 275 277 276 276 278 277 275 277 277 278 277 276 277 278 279 280 282 283 284 287 293 295 294 294 293 294
283 282 279 274 272 271 271 271 273 273 275 277 279 279 280 279 278 276 271 273 269 273 273 269 269 276 281 283 282 283 282 281 282 282 282 283 282 282 282 282 282 281 281 281 280 279 278 278 278 277 277 276 276 276 276 279 276 275 274 274 276 275 274 276 275 275 275 275 275 276 278 279 278 277 278 279 280 282 284 286 290 293 293 293 292 292
281 282 281 280 279 277 280 279 279 281 278 274 277 278 278 279 279 278 276 272 269 272 271 273 274 274 276 279 280 281 281 280 280 280 280 281 282 282 282 281 281 281 281 280 279 278 277 276 276 277 276 276 276 277 275 274 273 274 274 274 274 274 275 274 274 274 274 274 274 275 276 277 278 277 278 278 279 281 282 283 284 285 289 291 291 291
280 277 280 281 280 281 282 281 281 280 277 278 276 276 278 278 278 275 273 270 276 272 268 275 276 274 275 278 279 279 280 280 280 280 281 281 281 281 281 281 281 280 280 279 278 277 276 277 277 276 275 274 274 274 273 273 274 273 273 273 272 273 272 273 273 273 273 273 273 274 275 276 277 277 278 279 279 280 281 282 284 286 286 287 288 289
279 276 280 280 279 281 282 281 281 279 279 278 278 277 276 277 277 273 274 276 276 271 269 274 276 274 276 278 280 280 280 279 280 280 281 282 281 281 281 280 279 279 279 277 277 276 275 275 274 274 277 278 276 273 272 273 272 272 272 271 272 271 272 272 272 272 272 272 273 273 274 275 276 277 277 278 278 279 279 280 282 284 286 287 288 289
280 277 279 280 278 279 280 280 281 279 278 278 278 278 278 278 276 276 276 276 276 274 276 275 275 275 278 278 280 281 281 281 281 282 282 281 280 280 280 279 278 278 277 276 276 275 275 274 274 275 277 276 276 275 274 273 271 271 270 270 270 270 271 271 271 271 271 271 272 273 274 274 275 276 277 277 277 278 279 279 280 282 283 284 285 285
279 275 279 278 276 276 278 279 279 278 278 276 278 279 278 278 277 277 277 277 277 276 276 276 275 274 279 282 281 282 282 282 282 280 280 280 280 279 279 278 278 277 276 276 275 275 274 274 274 274 272 273 274 274 272 271 270 270 270 269 269 270 270 270 270 270 270 270 271 272 273 273 274 275 276 276 277 277 278 278 279 280 283 285 285 285
281 276 280 277 274 274 278 278 278 278 278 277 276 277 277 276 275 276 275 277 276 274 275 275 273 274 279 282 282 281 281 280 279 280 280 280 280 279 278 278 277 276 275 275 275 274 273 273 273 272 272 273 273 272 272 271 270 269 269 269 269 269 269 269 269 269 269 270 271 271 272 272 273 274 275 276 276 277 278 278 279 279 280 282 284 286
279 277 275 275 272 273 276 277 276 275 274 270 272 275 277 277 278 278 279 279 279 278 274 272 273 278 280 281 279 279 280 280 279 280 279 279 279 279 278 277 276 275 275 274 274 273 273 272 272 272 272 272 271 270 270 271 269 268 268 268 268 268 268 268 268 268 268 269 270 270 271 272 272 274 275 275 276 276 277 278 279 279 280 282 286 287
279 278 275 278 270 272 273 274 274 271 266 269 279 281 279 277 277 276 276 277 279 280 277 278 278 280 280 280 278 278 278 279 279 280 281 279 278 278 278 276 276 275 274 274 274 273 273 272 272 272 272 271 271 271 271 271 269 269 269 268 268 267 267 267 267 267 268 268 269 270 270 271 272 273 274 275 275 276 277 278 278 280 281 282 282 284
278 278 275 278 272 271 272 272 269 265 267 278 281 282 282 281 280 278 279 279 279 279 279 278 279 279 280 280 280 280 280 281 281 280 279 280 280 278 276 275 275 274 273 273 273 272 272 272 271 271 271 271 271 272 271 270 269 269 268 268 267 267 266 266 266 267 267 267 268 269 270 270 271 272 273 275 275 276 276 277 278 279 280 282 283 283
278 277 276 275 275 274 270 270 264 268 274 276 278 279 281 280 279 277 275 278 278 279 279 277 278 280 280 280 280 281 280 280 280 279 280 280 279 277 275 274 274 273 273 273 272 272 271 271 270 270 270 271 270 269 270 269 269 267 267 267 267 266 266 266 266 266 266 267 267 268 269 269 270 270 271 273 275 276 276 277 278 278 280 282 284 285
280 279 277 270 277 266 271 269 270 277 276 277 274 276 277 275 276 274 270 275 279 279 279 278 279 279 279 279 280 280 280 279 277 278 281 279 278 277 276 275 274 273 273 273 272 271 272 271 271 270 270 270 270 269 269 268 268 267 266 265 266 265 265 265 265 265 265 266 267 267 268 268 268 269 269 271 272 274 276 277 278 279 280 281 285 285
282 276 278 271 270 275 269 268 270 270 266 272 280 282 283 281 281 280 276 272 280 280 281 279 278 278 278 279 279 279 278 275 273 276 280 279 278 276 276 275 275 274 273 272 272 271 271 271 270 270 270 269 268 268 268 268 267 266 265 264 265 265 264 264 264 265 265 265 266 266 267 267 268 268 268 269 271 273 276 277 278 279 280 281 283 286
281 280 278 275 272 273 271 268 267 265 269 278 278 279 280 280 281 280 274 269 278 280 281 279 278 278 278 278 278 278 274 271 272 276 280 279 277 276 274 274 274 273 272 272 271 270 270 269 269 269 269 268 267 267 267 267 266 264 263 264 264 264 263 263 264 264 264 265 266 266 267 267 267 267 268 269 270 272 275 277 278 279 280 282 283 285
275 275 275 272 271 272 271 268 267 273 271 276 278 279 279 281 280 277 266 268 278 280 280 279 278 278 278 279 278 276 273 270 273 276 279 278 276 275 274 273 272 272 271 271 271 270 270 269 268 267 267 266 266 267 266 265 264 263 263 263 264 263 262 263 263 264 265 265 265 265 266 267 267 267 267 268 269 271 274 278 279 279 280 281 284 286
272 273 274 269 270 271 272 269 272 272 279 279 278 279 280 281 278 268 265 273 278 280 280 280 279 279 279 278 278 274 277 278 278 279 278 277 275 274 274 273 272 272 270 270 270 271 268 268 267 266 266 266 266 266 265 264 263 262 263 263 262 262 262 263 264 264 264 264 264 265 265 266 266 266 267 268 269 271 274 277 279 280 281 282 283 285
271 272 272 273 270 269 271 269 269 273 279 280 280 279 281 276 268 267 277 280 280 280 281 280 279 279 279 278 277 277 278 279 278 277 276 275 274 273 273 272 271 271 271 270 270 269 267 267 266 265 265 266 266 265 264 263 262 262 262 262 261 262 263 263 263 263 263 263 263 264 264 265 266 267 268 269 270 271 273 278 280 280 282 283 284 284
272 269 268 269 272 273 271 268 268 264 276 282 280 278 280 272 274 280 280 281 281 280 280 280 280 279 279 277 278 277 277 277 276 275 275 274 273 272 271 270 269 269 268 267 267 267 267 265 264 264 264 265 265 264 263 263 262 262 261 261 261 262 262 263 263 263 262 262 263 263 264 265 266 267 268 269 271 272 274 278 281 282 283 284 285 285
279 270 271 272 276 267 269 266 267 275 279 282 278 273 277 279 282 281 282 279 281 280 279 280 280 280 278 277 276 276 276 275 274 274 273 273 272 271 270 270 269 268 267 267 267 266 265 264 264 263 264 264 264 263 263 262 261 261 260 260 262 262 262 262 262 262 261 262 262 263 264 266 267 268 269 270 271 273 275 279 281 282 282 283 283 284
280 274 278 272 278 273 271 275 279 281 281 282 281 281 281 283 284 283 282 281 280 280 281 279 279 278 277 276 275 274 273 273 273 273 272 271 270 269 269 268 267 267 266 266 265 265 264 263 262 262 262 263 262 262 262 262 261 260 260 261 261 261 261 261 261 260 260 261 262 263 265 266 267 268 270 271 272 273 276 279 282 282 283 283 284 284
281 281 280 279 277 281 281 281 282 281 281 281 283 283 282 283 283 283 282 280 281 281 280 279 279 277 275 274 272 272 272 273 272 272 271 270 269 268 268 267 266 266 266 265 264 264 263 262 261 261 260 261 262 261 262 262 261 259 260 261 261 261 260 260 259 259 260 261 262 264 266 269 270 271 271 272 274 276 278 281 283 283 284 284 284 285
280 280 279 277 279 277 272 281 279 280 281 281 281 282 282 283 281 282 281 282 281 280 278 278 277 276 274 272 271 272 272 272 270 270 269 268 267 267 266 266 265 265 264 263 263 263 261 260 260 259 259 259 260 261 261 261 261 260 260 260 260 260 259 259 259 259 260 261 263 265 269 270 271 273 274 276 278 280 282 284 284 284 284 285 285 286
276 282 276 278 278 276 275 279 280 282 282 282 282 280 279 280 281 281 282 282 280 278 277 275 274 272 272 270 271 270 270 270 268 268 267 267 266 265 265 265 264 264 264 264 263 262 260 260 259 259 258 258 259 260 260 260 260 260 260 260 260 259 258 258 259 259 260 262 264 267 268 269 272 272 274 277 280 281 283 285 285 285 285 285 286 286
280 281 274 277 276 278 280 281 281 280 280 280 281 282 282 281 280 280 279 277 276 274 274 273 273 273 272 272 272 270 268 268 267 266 265 265 264 264 264 264 263 263 263 262 262 261 259 259 258 258 258 258 259 259 259 259 259 259 259 259 259 258 257 257 259 259 261 263 265 266 268 268 269 270 272 274 280 282 283 284 285 286 286 287 287 287
279 276 279 277 274 274 274 277 280 274 275 279 281 282 282 283 281 279 277 275 275 274 273 271 271 271 271 271 270 268 266 266 266 265 264 264 264 264 263 263 262 262 261 262 261 260 259 259 258 258 257 258 258 258 258 258 258 258 259 259 258 258 257 257 258 259 261 263 265 266 266 267 267 269 270 273 276 281 284 286 287 287 287 287 287 288
278 278 278 275 275 274 280 281 282 282 281 281 282 283 283 282 280 278 276 276 275 275 274 272 271 269 268 268 268 266 265 265 265 265 263 263 263 263 263 262 261 261 261 261 260 259 258 258 258 257 257 257 258 257 257 257 257 257 258 258 258 257 257 257 258 259 261 262 264 265 265 266 266 267 269 271 273 277 282 284 286 288 288 288 288 288
Wind_Speed
2 5 6 5 4 6 6 4 6 6 7 7 7 9 10 11 10 7 2 6 6 4 3 9 9 12 13 5 10 8 10 10 8 8 6 5 5 7 8 10 11 12 11 11 12 13 14 14 14 14 13 13 15 15 16 17 17 17 17 17 18 17 17 16 15 15 13 13 14 12 13 14 12 12 13 13 12 13 13 15 14 13 15 16 16 14
2 7 2 5 5 5 5 4 4 7 6 8 9 9 10 9 11 7 8 5 3 5 7 5 11 13 12 9 8 8 9 8 8 7 6 7 7 8 10 10 11 10 9 11 12 14 13 14 15 15 13 16 18 17 17 17 17 18 19 18 17 16 16 17 17 16 15 13 12 13 13 13 12 12 11 12 13 13 14 15 14 13 14 15 14 13
6 8 5 5 4 1 3 4 5 7 9 8 8 8 9 7 9 9 4 4 7 9 6 5 12 13 3 15 9 8 9 8 7 6 6 7 8 7 8 9 11 12 12 13 14 15 15 17 18 16 15 15 16 17 17 17 19 18 17 16 18 17 18 17 16 15 15 15 14 14 14 14 13 11 10 11 11 13 14 14 14 13 13 14 13 14
7 2 4 3 1 3 4 5 7 9 8 8 7 8 9 9 9 3 1 10 13 7 6 6 9 8 13 11 10 10 10 10 8 7 8 6 7 7 10 11 12 13 13 14 16 17 17 16 15 15 15 16 15 16 16 17 18 15 15 18 18 18 18 17 17 15 17 18 17 16 14 15 14 14 12 12 10 11 13 14 13 14 13 13 14 19
10 5 1 2 0 3 6 7 9 6 8 8 5 8 7 7 7 7 11 12 11 8 3 6 11 5 10 9 8 9 10 8 7 8 5 5 5 6 8 9 11 13 13 14 16 16 18 18 18 18 18 17 16 16 16 16 17 14 19 19 19 18 19 18 17 19 18 17 16 14 14 14 14 12 11 11 10 8 10 12 11 11 13 16 15 17
9 3 3 2 2 2 6 8 4 4 9 9 4 5 5 7 10 11 12 15 8 4 8 14 11 7 7 11 12 10 8 7 5 5 5 5 7 10 11 12 11 10 10 12 16 19 20 19 19 20 21 20 19 19 18 18 18 20 19 21 21 18 17 19 20 19 18 16 16 15 14 15 13 15 13 12 14 14 12 13 14 13 12 13 15 15
5 1 1 2 2 4 6 8 2 2 7 9 3 4 5 7 8 10 13 10 9 8 7 7 5 11 4 9 14 12 9 7 6 4 5 7 9 10 11 11 12 13 13 14 16 20 21 21 21 21 21 21 21 20 19 19 20 22 22 22 22 20 18 17 19 21 17 18 16 17 16 14 15 17 13 12 13 13 12 11 13 13 13 12 13 13
3 1 1 1 4 5 6 9 4 3 5 7 6 7 8 8 10 11 10 8 10 11 12 7 8 11 8 9 13 12 8 6 2 4 6 8 10 11 11 12 14 15 15 15 19 22 22 22 22 24 23 21 21 22 21 20 20 23 24 24 24 20 19 19 19 20 19 18 18 18 17 15 15 15 18 16 13 13 12 12 13 11 10 12 12 13
3 0 1 4 3 4 7 4 4 2 4 4 9 6 9 9 10 10 8 9 10 11 10 5 7 6 7 3 12 10 10 4 3 5 7 10 11 13 13 13 15 16 17 17 17 20 21 22 22 22 23 23 24 21 21 21 22 23 24 24 24 25 23 21 23 20 20 19 19 18 16 17 14 14 14 15 13 13 12 14 11 10 10 11 13 12
3 4 4 2 2 6 4 3 6 3 5 3 8 7 8 9 9 9 8 10 9 5 10 8 9 6 11 5 8 6 5 3 3 5 8 11 13 13 13 14 17 18 17 16 18 20 21 22 22 22 23 23 21 20 21 23 22 24 25 26 26 27 23 22 24 22 22 22 20 19 18 19 17 14 14 14 16 14 12 12 12 10 9 8 11 12
2 2 1 1 3 3 1 3 2 2 4 8 8 9 9 8 9 9 7 7 5 6 10 8 7 8 8 7 3 5 4 3 5 6 9 11 12 14 14 16 17 17 17 17 19 20 22 22 23 23 24 24 24 20 20 19 21 21 23 25 29 26 23 23 24 24 24 22 20 19 19 20 20 18 17 15 15 15 13 12 12 10 9 8 10 11
3 3 3 1 1 2 2 2 3 4 5 5 4 7 10 8 6 9 5 0 4 8 4 5 4 3 6 2 4 6 6 4 5 5 9 12 13 14 15 15 16 16 16 18 19 20 22 23 22 22 25 26 27 27 27 25 26 26 22 22 26 27 26 25 24 24 24 22 20 20 22 21 20 19 15 16 15 17 15 13 12 9 8 7 8 10
5 6 3 4 1 3 3 5 5 4 5 5 5 5 7 9 7 5 4 5 6 6 5 8 5 5 12 8 8 8 8 5 5 5 8 12 15 16 15 17 16 15 17 17 19 20 20 22 23 25 27 27 25 24 25 25 21 22 24 26 28 29 27 25 26 25 25 23 23 21 21 21 18 18 18 17 15 15 14 12 11 10 8 6 7 9
2 5 4 4 3 2 3 4 3 4 3 2 2 3 4 7 6 10 6 6 7 2 8 1 8 10 11 15 12 10 8 6 5 7 8 12 14 16 16 16 16 16 17 18 19 20 20 21 23 24 23 24 23 24 25 27 26 23 22 25 27 28 26 25 23 25 25 25 23 23 20 20 18 18 17 16 14 14 13 11 11 10 8 6 6 9
9 6 7 7 4 2 3 1 3 2 3 1 1 3 1 2 3 8 5 8 7 8 10 8 5 4 5 5 10 9 5 2 6 7 10 13 14 14 14 16 16 17 17 17 19 20 22 23 23 23 25 25 27 29 26 23 26 25 23 24 29 27 27 28 30 28 26 24 23 22 21 19 17 17 17 15 13 13 14 11 11 10 8 6 5 6
9 8 3 2 2 3 4 1 1 2 2 4 1 4 1 4 4 8 6 8 9 13 10 4 6 4 5 10 8 7 5 1 6 10 13 15 15 15 14 15 16 16 18 18 20 22 26 27 26 23 22 22 22 26 21 23 19 19 22 25 25 28 26 25 26 25 24 29 22 23 22 22 19 16 16 15 13 14 13 12 11 11 9 6 5 5
1 7 7 5 1 2 2 2 1 1 4 4 2 2 2 6 2 7 9 8 1 6 13 5 8 5 8 8 10 8 2 2 7 11 13 15 15 16 14 15 17 17 18 18 19 21 24 22 20 19 21 21 23 23 26 26 24 20 22 25 30 23 19 25 23 25 23 21 22 22 28 25 21 21 20 19 19 17 15 13 11 10 9 7 5 5
6 4 5 6 5 3 0 3 2 2 3 3 4 3 4 4 2 3 6 3 6 10 10 4 9 12 7 6 8 7 1 5 9 13 15 15 15 15 14 15 17 18 19 21 23 23 22 22 23 23 23 25 25 26 28 28 25 24 27 26 19 27 33 21 21 25 22 21 23 25 20 24 26 21 19 18 17 16 16 13 10 10 9 7 6 5
3 8 5 3 2 3 3 3 5 4 4 2 2 2 1 3 2 5 2 5 5 9 8 10 12 13 9 8 5 5 5 9 11 14 16 16 16 16 16 18 19 19 18 21 24 23 23 24 26 27 28 28 26 24 23 22 23 21 18 24 31 28 25 28 23 18 15 23 20 16 21 21 21 25 18 17 17 16 15 14 11 11 10 8 5 5
2 4 1 2 0 3 3 5 7 5 3 4 2 1 1 2 7 6 5 2 2 10 7 9 7 11 8 4 7 3 6 6 12 14 15 16 16 16 17 18 20 21 20 20 22 22 22 23 27 28 27 27 27 26 20 21 17 21 26 25 25 27 27 26 25 27 24 18 19 21 20 21 18 21 23 17 15 16 16 14 12 12 11 8 6 5
3 4 8 4 3 3 4 8 9 7 6 4 5 6 4 4 1 2 4 3 5 5 8 12 14 2 6 6 3 3 5 8 12 14 14 15 16 17 18 19 18 20 23 23 22 23 25 26 25 25 25 24 24 23 23 24 22 25 24 23 24 24 27 26 25 23 22 22 21 22 22 21 22 24 19 25 18 16 16 14 12 11 10 7 6 5
2 5 7 3 5 8 6 6 3 5 1 7 7 9 9 7 5 6 8 4 1 6 6 6 13 11 6 5 3 4 2 9 13 14 14 16 17 18 18 20 21 19 20 20 21 22 23 24 25 24 23 22 22 22 22 24 25 25 25 26 23 22 21 23 24 26 22 16 21 22 22 23 21 18 20 19 25 19 14 12 13 10 10 8 7 7
2 1 3 7 7 7 1 2 4 4 3 4 4 7 6 8 6 6 7 3 1 7 6 10 10 16 6 2 3 2 4 10 12 13 14 15 16 18 18 19 21 22 22 21 22 22 23 23 22 22 24 23 24 24 25 18 16 24 27 24 26 25 22 25 24 22 22 22 22 23 22 21 19 20 20 19 16 23 19 13 15 12 10 8 6 6
3 1 3 9 1 2 2 3 1 2 1 4 7 7 6 10 12 9 7 6 6 7 7 7 12 8 8 6 4 3 8 12 11 13 15 14 15 18 19 20 20 19 20 19 19 21 22 21 21 21 23 23 22 18 22 23 26 27 24 26 23 24 29 23 22 24 23 19 21 22 23 20 20 22 21 18 15 16 21 18 14 13 11 8 7 7
3 5 6 3 4 5 4 5 5 4 5 6 6 10 10 8 8 8 2 1 3 10 11 8 17 10 4 7 3 7 14 15 15 13 13 15 16 17 18 18 19 21 20 20 22 23 24 24 24 22 22 23 22 21 23 26 27 25 27 24 25 27 22 25 23 21 23 24 25 22 17 20 21 20 20 21 18 17 18 19 14 14 13 8 7 7
5 4 7 7 9 9 7 5 6 8 10 7 8 9 13 14 14 6 5 6 10 5 14 14 16 15 10 9 13 15 14 15 14 13 13 14 17 18 17 17 19 19 18 20 23 23 23 22 21 23 22 21 22 23 26 25 24 26 24 25 26 23 25 24 20 24 23 22 22 23 25 21 18 20 21 20 20 19 17 17 16 13 13 10 10 9
2 3 10 12 12 13 11 3 3 6 5 7 9 14 14 14 14 10 4 8 14 11 14 16 15 19 18 16 17 15 13 15 13 13 14 16 18 18 17 17 18 18 18 20 21 20 21 23 25 24 24 23 23 21 19 22 26 27 26 28 25 24 24 22 23 22 22 22 23 22 22 23 21 19 20 19 19 19 17 17 18 18 15 11 11 11
0 4 12 14 17 15 11 9 2 6 8 9 8 13 15 15 12 12 13 14 8 8 20 11 15 16 18 15 14 15 16 13 11 13 15 16 17 18 18 19 21 20 20 20 20 22 23 24 25 26 26 26 23 21 21 28 28 25 26 26 26 26 22 22 22 22 22 22 22 21 21 21 21 20 19 19 19 18 19 18 16 15 15 15 16 13
4 6 8 12 17 15 13 13 6 6 9 10 12 13 15 16 14 17 19 19 13 12 18 10 12 14 14 14 15 15 15 10 11 14 16 18 18 18 19 20 21 20 21 21 21 20 23 24 23 23 24 25 26 28 30 29 27 27 25 24 25 23 25 23 22 22 22 22 23 22 21 20 19 18 18 19 19 19 19 19 17 16 15 12 11 9
1 8 5 8 11 12 12 12 10 13 12 13 15 16 17 16 19 21 20 21 21 21 19 18 19 21 17 17 16 14 7 9 10 12 15 18 19 19 19 20 19 20 21 21 20 21 21 22 24 26 30 31 32 32 32 29 28 27 26 28 25 24 23 22 23 23 23 23 23 22 22 22 21 20 19 19 19 19 19 18 17 18 17 18 17 16
6 4 6 4 7 10 10 11 12 13 14 18 18 19 18 18 19 19 19 21 19 23 22 23 23 21 16 14 12 6 7 9 11 14 17 17 17 19 19 19 18 19 21 19 19 20 21 22 23 24 25 25 29 30 27 28 28 27 28 25 25 24 23 22 24 23 23 23 22 22 22 21 20 20 20 19 19 18 18 19 17 17 18 15 14 15
6 3 5 1 4 9 5 11 12 13 16 19 23 19 18 19 19 18 18 17 18 18 19 18 15 15 11 9 7 8 9 11 12 14 15 15 17 18 17 16 17 20 20 20 20 20 21 23 24 24 25 29 29 28 28 30 28 27 27 26 25 24 23 23 23 23 23 23 23 22 22 21 21 20 19 18 18 18 17 16 16 17 18 18 18 15
7 4 3 3 4 8 3 4 5 6 10 15 23 19 21 21 18 15 16 17 19 17 14 14 14 10 9 8 10 10 10 12 12 12 13 14 16 16 15 14 16 18 19 19 20 20 21 21 22 22 23 22 22 24 28 28 27 26 26 28 26 23 23 24 23 23 23 22 22 22 21 20 20 20 18 18 17 18 17 17 17 17 17 18 16 12
6 6 4 5 4 1 4 3 0 4 11 12 7 15 21 21 20 20 18 16 16 16 13 12 12 10 11 10 9 10 11 11 12 12 12 13 14 13 11 14 16 17 17 17 18 19 20 20 20 21 23 23 23 26 28 27 26 25 26 25 25 27 26 24 24 22 23 22 22 21 21 20 20 20 20 19 18 17 17 17 17 16 16 15 16 15
9 7 5 4 4 3 4 3 3 10 14 7 3 4 8 10 11 14 13 13 14 15 15 15 15 14 13 8 8 10 11 12 11 13 16 13 8 6 11 15 16 17 19 18 19 20 20 21 23 24 24 23 25 27 26 26 24 26 26 26 27 24 26 25 24 24 23 23 22 21 20 20 19 20 20 19 18 17 17 17 16 16 16 15 15 15
8 8 5 3 3 1 3 6 5 8 4 0 1 6 5 5 7 6 11 13 13 14 14 15 14 12 8 7 9 9 11 11 11 13 14 5 2 5 9 13 16 17 18 18 19 20 20 21 22 23 23 21 22 23 24 26 27 25 24 24 26 26 23 22 22 23 22 22 21 20 20 20 20 19 19 19 18 17 17 17 17 16 16 16 15 13
10 5 7 4 6 6 7 10 15 9 14 11 6 9 10 8 9 10 7 9 12 15 14 13 11 8 5 8 8 9 10 9 10 10 3 5 4 7 9 11 13 15 16 18 18 19 19 20 21 22 22 22 21 22 23 25 26 28 28 25 23 26 26 25 24 23 23 22 22 21 21 20 20 21 20 19 19 21 19 17 16 15 14 15 14 13
10 10 5 7 7 5 5 9 9 11 16 8 10 9 10 7 6 2 3 8 7 11 12 12 9 6 7 7 7 7 8 9 9 7 2 5 7 10 9 10 11 12 14 16 17 18 18 18 20 21 21 23 24 22 23 26 27 26 25 24 24 24 23 22 23 22 22 22 22 22 21 20 20 20 20 18 19 19 18 16 14 13 13 14 15 12
7 7 7 9 6 7 10 12 11 9 7 2 7 12 10 10 7 5 2 12 9 15 11 9 7 6 6 6 6 4 4 7 10 8 6 10 10 10 13 12 12 13 14 15 16 19 21 20 21 22 22 22 22 22 24 27 28 25 25 24 23 23 23 25 25 24 23 24 23 23 21 20 20 20 20 21 20 18 20 17 15 13 14 15 15 13
6 6 7 10 14 13 9 11 15 5 7 5 12 11 11 10 8 4 5 4 11 12 11 7 5 5 5 5 4 4 5 7 10 11 12 13 12 11 12 14 15 16 17 17 16 16 19 19 20 22 23 24 24 24 24 24 23 25 23 22 23 24 23 23 24 25 23 24 24 22 21 20 21 21 20 21 20 19 18 15 14 13 13 13 11 9
10 8 13 16 12 14 15 13 10 11 6 9 11 12 11 9 7 4 10 2 10 10 9 6 7 6 5 5 5 5 7 7 10 11 12 13 13 13 12 11 12 13 15 16 17 20 18 18 18 20 22 21 23 23 22 22 22 23 23 24 23 25 24 24 24 24 24 23 22 22 22 20 19 22 22 20 19 18 19 16 14 13 12 12 11 10
8 8 8 10 14 14 13 12 12 10 8 10 11 14 12 8 7 11 1 7 10 7 8 9 8 6 5 6 6 7 8 7 9 10 11 11 11 13 13 13 14 14 12 13 14 15 15 17 18 21 23 21 21 21 19 19 22 23 24 23 25 27 26 24 25 24 24 25 25 24 23 22 20 19 18 18 17 17 18 15 12 12 13 11 10 10
15 11 13 14 8 7 9 11 7 10 5 18 14 10 11 6 6 5 7 7 7 6 8 8 6 5 5 5 7 8 8 8 9 9 10 10 10 12 13 14 15 15 16 17 18 17 17 17 18 19 22 21 21 18 19 23 24 23 23 24 27 27 26 26 24 24 24 25 24 23 22 21 21 19 15 16 17 17 18 15 12 12 12 11 10 10
12 5 4 7 11 8 12 12 10 3 10 13 16 10 11 15 4 6 3 4 6 6 6 5 6 6 6 5 5 6 7 8 9 9 9 9 9 10 11 12 13 14 15 14 14 16 16 18 18 19 20 21 18 18 18 17 22 22 25 28 26 27 27 25 24 24 25 23 22 22 19 18 18 17 15 16 15 15 16 14 11 11 11 10 10 9
16 10 4 8 11 10 8 8 3 5 9 14 14 6 10 13 4 5 4 3 5 4 4 3 5 6 6 5 5 6 6 7 8 8 8 9 9 9 10 11 12 13 14 16 16 16 15 17 20 21 22 20 21 19 18 17 20 25 26 25 24 27 27 27 26 25 23 23 21 20 18 16 14 13 13 14 13 14 13 13 11 11 10 9 9 9
0 7 4 4 8 7 8 4 2 4 8 10 9 2 5 5 4 4 5 5 4 5 6 5 5 6 6 4 3 4 7 7 7 7 7 7 8 9 9 10 11 11 12 13 14 16 16 17 18 18 21 22 21 20 17 18 19 24 24 24 24 26 27 26 27 26 25 22 19 20 19 19 16 14 13 14 11 12 12 11 10 9 9 8 8 8
7 5 6 8 5 6 8 9 10 10 8 11 10 4 2 1 4 4 6 5 5 7 6 3 5 5 6 5 6 7 7 6 6 7 6 6 7 8 9 10 11 11 13 14 16 16 15 17 18 19 21 23 21 19 18 21 19 19 21 23 23 25 27 26 25 24 22 20 18 17 17 17 16 15 12 10 10 10 10 9 9 9 8 7 6 6
8 11 4 10 8 12 4 5 11 9 8 9 9 7 6 6 6 6 5 4 6 6 5 7 6 5 6 5 7 7 7 4 5 5 5 5 6 7 8 9 11 12 11 11 13 14 15 14 16 20 22 21 20 19 19 18 19 20 21 21 22 23 25 24 22 21 21 21 18 16 18 18 23 22 15 12 10 9 9 8 7 8 8 6 6 6
6 13 7 9 10 9 8 6 5 4 4 7 8 7 6 7 8 8 7 7 7 8 7 5 5 5 7 7 6 5 5 5 4 4 5 5 6 6 7 9 10 11 12 13 13 13 14 16 17 18 20 20 19 19 18 19 19 20 22 21 22 23 24 23 25 23 21 20 18 19 19 18 17 16 16 15 14 10 8 8 7 6 7 6 5 5
8 12 7 9 10 11 12 12 10 5 4 8 11 11 9 9 10 9 8 7 7 7 7 7 6 5 5 4 5 5 6 4 3 3 5 5 6 7 9 9 10 11 12 11 11 12 14 15 16 18 19 18 18 18 19 20 19 20 20 20 20 22 23 23 21 22 20 19 18 18 20 19 18 17 16 15 15 13 8 10 13 11 8 6 8 12
11 10 10 11 10 11 10 9 12 8 6 6 8 10 9 7 8 9 10 10 9 8 7 8 7 5 6 6 5 6 6 4 4 2 4 5 6 5 7 9 10 11 12 12 13 13 14 15 16 16 18 18 17 18 18 19 18 20 21 21 20 20 21 21 18 17 17 19 17 21 21 19 19 18 16 15 15 14 12 8 6 12 16 16 12 10
Wind_Direction
325 310 305 310 346 348 338 345 324 314 309 293 271 270 280 285 288 288 117 93 60 344 294 312 313 309 310 332 121 111 110 108 106 99 79 64 63 44 24 21 13 3 3 354 351 349 345 347 345 345 340 336 336 338 338 335 337 333 329 326 326 327 326 325 323 320 319 319 318 316 318 317 317 316 314 309 310 308 304 302 296 272 255 246 231 216
260 288 314 55 16 336 331 323 308 295 268 279 286 284 293 299 292 353 308 103 56 12 294 314 315 309 307 104 124 118 108 99 99 92 73 63 49 33 20 12 8 2 355 353 350 348 349 349 346 343 342 341 340 339 335 334 333 330 327 323 321 319 318 318 317 315 311 313 314 313 312 312 313 315 313 313 312 310 302 296 292 285 270 249 238 228
299 300 69 43 3 344 263 287 272 280 290 286 283 297 298 306 353 314 106 83 349 314 302 356 319 311 340 127 126 118 102 94 89 84 70 56 33 24 17 9 4 1 357 353 352 348 349 348 344 342 338 336 336 332 332 332 331 328 325 322 320 316 313 310 309 308 309 307 306 306 303 306 309 304 301 299 299 307 310 306 297 293 285 268 257 244
306 45 51 29 64 281 252 232 289 289 278 276 283 291 298 334 359 309 265 353 323 298 312 326 303 328 114 120 122 117 111 108 101 96 90 54 32 23 14 10 1 358 356 352 350 347 344 340 338 336 336 334 332 329 328 328 326 324 321 321 317 314 308 304 304 303 302 303 302 298 298 301 300 305 301 295 299 309 313 312 310 308 304 293 267 245
280 343 82 72 251 291 304 299 286 304 303 301 249 282 298 339 331 315 311 318 303 112 12 333 308 292 156 152 144 131 120 115 114 110 101 74 54 28 13 12 5 357 354 345 344 344 341 342 340 336 333 332 330 326 326 327 326 324 321 317 314 311 308 302 299 301 303 300 298 297 296 297 302 299 300 305 305 311 311 312 310 310 311 307 298 272
266 71 6 197 256 285 305 297 332 347 298 308 84 28 10 328 315 315 316 327 322 290 98 25 326 303 191 185 161 148 146 128 112 97 65 38 28 16 11 6 358 351 350 344 345 348 344 341 336 333 332 332 329 328 326 322 317 316 315 313 309 304 302 301 299 298 298 298 297 299 300 300 304 306 313 316 318 320 322 318 314 309 306 299 296 291
315 101 268 290 278 303 287 289 6 20 297 303 38 326 352 318 308 309 321 335 309 314 319 40 286 289 244 228 159 169 164 135 115 71 51 29 14 11 6 354 353 350 349 348 347 346 342 338 335 331 331 330 327 324 320 317 316 314 312 310 307 303 299 296 294 295 294 293 294 294 293 291 295 299 298 304 304 304 306 308 310 311 313 303 294 291
159 138 176 206 291 285 299 284 88 318 320 286 40 341 341 319 311 311 309 292 287 299 297 261 232 262 282 270 151 165 156 137 105 62 37 22 9 4 360 355 353 354 350 346 350 342 337 335 334 331 329 328 325 321 318 316 313 311 309 307 305 301 297 296 295 292 292 291 290 291 291 288 285 287 293 299 298 298 298 299 305 309 309 311 304 303
325 77 339 291 320 291 285 34 48 22 261 316 359 346 311 302 294 288 284 297 300 310 293 272 206 250 254 189 145 172 201 182 43 36 18 12 4 360 357 355 350 349 350 345 338 334 331 329 329 326 325 325 324 323 319 316 313 309 306 302 301 300 299 296 294 292 290 288 287 287 286 286 282 283 289 290 291 293 295 295 300 300 305 310 310 309
66 31 34 354 329 288 64 61 57 359 263 24 337 292 265 251 254 254 279 299 307 305 278 262 195 237 272 157 187 193 226 264 25 6 11 4 1 355 355 350 349 350 343 337 331 327 326 325 324 322 320 320 321 319 315 313 312 310 307 302 299 298 299 299 295 292 289 288 288 285 282 283 284 282 282 286 287 291 291 292 295 299 305 314 314 312
82 93 248 230 285 356 351 85 328 20 321 297 280 281 296 282 279 280 277 292 311 258 267 234 187 232 283 266 252 177 190 58 359 1 358 354 352 353 352 352 348 341 337 333 329 325 322 322 321 321 318 317 315 313 312 308 302 300 306 308 305 300 300 299 297 295 293 289 285 284 282 281 282 281 278 278 281 285 287 290 293 297 303 313 314 310
191 154 191 90 347 256 111 213 189 245 265 286 313 316 311 291 288 279 258 345 255 276 91 106 115 278 251 264 120 107 116 79 40 353 356 351 349 349 351 348 339 334 333 331 328 325 323 321 319 319 318 318 318 318 318 316 316 312 306 306 307 305 304 303 299 295 294 291 285 283 284 279 277 279 278 275 277 280 283 285 288 290 297 304 312 307
233 204 79 111 309 194 204 267 201 201 228 258 288 304 346 306 326 302 160 253 213 259 115 110 78 283 238 268 128 145 142 105 38 16 5 350 347 349 344 338 333 331 331 330 327 324 324 326 327 326 324 320 317 316 312 307 306 309 309 310 310 307 307 306 303 297 294 293 289 285 282 280 277 278 277 275 269 273 273 278 281 284 289 302 310 313
274 82 147 129 167 156 254 239 221 209 151 309 317 343 325 310 317 290 288 274 271 232 106 236 350 273 265 260 158 142 130 94 35 17 8 351 346 341 336 332 331 332 332 332 327 323 322 323 324 322 317 315 313 314 316 316 313 314 314 315 313 308 306 304 301 299 298 293 289 285 279 279 278 276 274 272 266 269 267 267 271 275 277 285 291 305
289 255 178 189 185 108 227 287 3 4 3 79 78 265 265 264 279 289 317 308 302 285 290 292 322 240 302 84 128 125 106 107 34 360 358 351 340 335 332 327 330 331 332 330 325 321 320 320 319 319 320 320 317 314 314 316 319 316 316 320 317 317 321 318 314 309 300 292 290 286 280 278 279 275 276 272 266 265 266 260 265 265 266 267 280 287
227 259 88 9 11 304 177 24 275 8 199 128 56 69 196 235 233 252 300 305 306 307 310 182 209 246 300 112 124 137 122 210 17 356 349 343 335 334 331 330 329 331 330 328 325 324 324 325 325 323 319 314 313 318 315 314 317 323 327 326 320 319 321 328 320 309 308 307 298 289 285 283 279 275 272 270 265 265 259 260 258 262 256 260 266 273
119 245 117 128 337 119 61 288 141 155 241 141 158 216 84 46 317 283 288 254 14 269 257 199 258 251 97 176 155 164 139 6 357 351 345 336 335 334 332 332 331 331 329 327 324 319 317 315 314 313 311 313 316 315 318 322 326 332 328 321 314 310 321 318 312 309 309 307 313 316 310 291 281 280 273 272 272 265 259 255 257 257 254 249 256 265
257 307 156 165 190 79 357 341 140 334 317 112 233 143 140 97 101 230 274 297 268 266 268 188 241 277 267 280 159 176 34 337 348 343 339 332 334 333 330 329 329 328 328 324 319 318 319 320 320 319 320 320 321 323 323 323 326 326 319 310 305 316 314 320 317 318 321 323 319 317 310 307 296 278 274 269 269 269 264 250 251 250 251 238 242 262
85 275 169 287 102 131 253 218 216 151 353 290 58 82 205 259 294 182 117 262 275 265 293 272 276 261 255 255 134 206 344 343 337 339 333 333 334 332 330 328 328 328 326 329 328 326 327 328 326 324 324 324 323 323 322 325 327 319 314 320 323 321 310 313 312 298 309 320 318 306 306 305 305 289 270 270 268 270 260 248 243 249 248 251 238 246
285 245 295 174 133 137 239 201 233 169 145 85 103 183 82 258 240 217 218 274 252 270 307 276 308 277 225 280 135 15 345 335 336 336 333 329 331 332 331 329 329 332 331 324 323 326 326 326 326 326 326 326 325 324 327 325 317 318 320 317 319 315 317 316 311 316 314 315 309 307 306 311 317 317 298 269 273 267 262 246 241 245 247 242 242 229
209 171 269 115 320 110 231 194 226 187 171 164 182 215 151 211 334 299 281 181 222 261 257 289 294 295 95 91 100 315 336 340 339 333 329 326 328 331 331 329 329 330 331 327 325 326 327 325 322 323 324 325 325 327 327 325 326 324 319 318 321 318 314 313 313 310 312 314 308 310 312 312 313 310 311 304 277 272 261 253 241 242 243 239 232 239
179 195 231 139 214 208 221 32 13 360 243 204 194 220 198 189 186 202 257 121 218 228 252 255 264 272 155 157 320 351 350 330 335 333 324 325 327 329 330 328 330 329 323 324 324 323 323 323 324 325 324 324 327 326 321 324 321 329 325 319 317 314 314 311 312 312 314 313 305 308 310 311 308 304 307 308 309 289 266 252 250 240 235 229 235 234
152 323 238 232 221 229 358 16 346 291 321 279 243 233 222 214 173 208 243 206 145 236 242 257 287 279 129 79 194 219 301 332 334 328 322 323 325 327 327 326 326 327 325 324 325 324 323 323 324 323 322 324 328 324 319 316 318 322 323 321 318 317 312 312 312 307 307 311 306 306 309 308 305 305 301 303 300 303 289 264 262 252 233 230 232 231
55 169 241 250 76 94 175 119 9 1 286 270 242 222 194 202 197 204 222 272 267 251 228 247 246 244 125 174 196 243 314 330 331 329 324 324 325 326 328 325 323 323 323 321 323 324 322 323 324 324 327 328 322 314 328 333 330 332 326 321 318 314 318 316 313 315 312 307 302 303 305 304 305 304 302 298 298 295 302 296 273 259 247 227 236 242
140 199 156 247 262 233 212 212 220 173 196 229 208 200 200 213 214 226 292 19 269 234 220 220 250 261 82 153 223 301 324 324 325 326 328 323 324 325 328 325 323 323 321 322 326 325 323 323 325 327 327 326 326 331 328 328 331 327 324 322 319 318 313 313 314 307 308 312 307 302 295 299 303 301 301 300 297 295 294 293 278 267 255 240 239 239
208 188 161 201 220 242 235 211 226 199 204 215 224 202 202 206 210 182 223 206 237 220 211 228 252 264 263 266 292 307 310 314 319 324 323 321 322 325 326 322 321 321 319 323 327 325 324 321 320 322 324 324 328 330 327 331 327 324 320 318 320 317 315 312 309 310 308 304 304 304 303 298 296 298 298 296 296 295 293 295 300 279 260 262 264 257
201 263 226 222 234 244 260 2 61 127 167 194 204 203 210 209 208 204 210 227 231 252 252 238 246 274 273 279 286 294 309 314 321 321 318 321 322 323 323 322 321 319 321 326 325 322 318 317 319 324 329 330 326 327 326 323 324 324 322 319 318 315 316 311 311 307 303 302 301 298 301 303 302 297 297 296 295 295 293 290 284 289 287 275 272 267
218 231 230 235 247 256 275 295 194 180 231 231 207 215 215 207 197 206 210 227 217 258 260 242 246 255 268 276 282 302 311 316 322 319 318 320 322 322 325 323 319 319 323 325 325 325 322 322 325 329 331 329 327 326 326 328 329 324 322 320 317 317 312 313 309 305 302 301 298 297 295 297 300 296 292 294 293 292 293 291 288 280 275 279 277 270
213 241 233 226 248 255 262 268 245 231 241 246 244 234 227 213 201 210 225 229 222 224 252 273 272 268 272 278 294 301 306 323 321 317 315 316 316 319 321 320 320 323 326 324 322 321 323 326 327 322 319 329 329 328 327 328 327 323 323 317 317 312 312 310 307 305 303 300 297 297 298 295 294 293 290 291 291 290 289 291 290 290 288 283 280 279
119 254 232 235 259 255 251 253 256 262 264 256 245 239 239 228 220 217 225 228 229 243 255 269 272 270 274 281 289 296 322 321 316 312 311 315 318 319 319 317 317 321 324 322 321 321 319 321 322 326 335 335 336 333 330 327 324 324 320 320 315 314 311 311 307 305 303 300 297 297 297 297 292 289 289 290 290 289 287 289 293 289 279 276 278 278
174 271 114 222 258 259 249 252 254 256 262 264 256 247 241 236 237 232 231 233 237 249 253 258 263 267 269 274 280 316 323 312 311 313 314 315 318 317 317 315 316 318 318 318 320 320 320 318 318 323 328 329 329 326 325 321 320 318 319 317 315 313 312 310 307 304 302 300 299 297 296 294 292 290 285 286 290 288 286 283 282 283 282 276 268 267
194 244 104 204 269 272 236 235 245 256 264 268 263 247 237 232 236 230 232 225 223 235 245 253 256 258 269 278 307 314 311 311 313 314 311 315 314 310 308 310 316 316 316 318 320 320 320 319 320 322 323 330 331 327 326 325 320 318 317 318 315 313 312 309 305 303 302 300 299 297 295 294 292 287 282 280 282 286 284 281 278 277 276 273 268 264
192 189 187 175 239 272 314 200 259 293 305 274 250 231 228 231 231 232 235 230 227 228 238 241 246 260 280 300 299 298 304 307 309 312 308 306 304 303 303 312 315 314 314 317 318 318 318 318 316 317 317 318 324 325 324 324 318 315 316 315 314 315 311 308 306 303 301 300 298 297 295 294 292 287 280 277 278 283 283 278 275 272 273 273 269 259
183 191 177 171 204 132 98 75 229 300 260 248 75 193 208 218 225 232 232 227 222 217 232 240 260 270 278 288 294 299 303 307 313 305 300 302 301 299 307 313 314 314 313 314 316 318 318 317 315 315 318 319 319 324 326 324 319 313 313 313 315 313 308 307 308 305 301 300 297 296 294 294 291 287 282 275 272 277 277 275 274 275 272 266 266 267
178 184 186 183 193 229 114 161 281 250 248 46 138 167 190 202 212 227 233 227 219 222 236 248 256 266 278 292 290 295 301 307 315 305 295 298 293 311 316 314 316 319 317 318 319 320 319 318 316 316 319 323 325 326 323 321 323 319 314 314 311 311 312 309 306 305 304 301 299 297 296 295 293 294 293 283 272 272 274 274 275 274 273 265 256 253
178 172 167 211 167 297 181 191 231 235 47 355 94 150 122 182 211 215 250 233 223 229 235 248 255 264 274 280 290 299 304 316 311 289 284 282 82 339 326 320 318 319 317 318 319 319 320 319 317 317 315 317 321 322 323 323 323 320 311 310 309 308 306 307 304 301 302 302 302 300 298 297 295 293 293 293 285 275 273 274 273 272 272 269 260 255
167 157 178 206 187 188 215 206 234 318 299 237 199 209 182 191 196 188 230 239 211 221 234 242 249 249 253 279 295 303 316 316 298 295 132 132 4 352 336 312 310 311 311 312 316 315 318 317 316 316 316 318 319 319 323 324 322 319 315 315 311 307 309 311 308 307 305 302 302 300 298 296 294 292 290 287 286 283 274 270 267 266 268 272 266 247
184 179 175 152 244 194 199 261 265 257 255 266 227 204 176 180 155 169 4 269 207 224 231 234 231 228 266 287 292 309 318 302 300 309 55 47 5 338 323 307 305 308 310 312 314 316 319 320 318 316 317 317 318 320 323 326 326 320 314 309 312 315 309 306 305 305 305 302 300 297 295 292 291 290 287 284 281 281 275 268 269 267 265 262 263 256
211 198 203 215 240 211 221 229 234 243 255 221 143 122 117 106 116 145 249 272 210 209 196 168 199 240 264 272 285 308 303 299 296 303 344 349 341 335 319 316 317 316 317 318 321 322 324 324 321 317 315 313 314 320 323 323 322 319 311 313 313 308 305 307 311 311 308 305 303 300 296 292 288 285 284 283 281 281 279 270 265 263 261 257 256 263
182 206 190 227 231 227 226 230 243 227 262 165 138 133 124 120 149 180 280 283 117 141 150 169 214 235 248 260 263 253 261 279 296 309 333 333 331 323 322 323 324 325 324 324 322 323 320 319 322 321 322 319 318 321 322 322 318 319 317 309 311 312 312 312 308 306 305 303 300 298 294 290 287 282 280 279 278 278 275 270 264 259 262 274 279 271
191 203 206 220 220 226 223 244 270 263 233 156 148 139 132 153 155 202 230 176 149 142 173 185 210 220 223 229 224 249 238 269 294 308 318 316 315 314 318 317 317 319 319 324 325 326 323 324 323 318 315 315 318 320 321 323 320 319 315 312 315 312 309 307 308 308 306 303 300 296 292 288 281 278 275 272 272 273 274 268 261 256 252 252 255 258
203 189 228 225 219 216 217 236 243 275 235 157 166 149 147 139 213 220 93 117 159 180 185 184 199 216 199 223 230 247 273 288 293 296 300 303 304 306 312 317 317 316 315 318 318 318 317 320 318 316 314 316 318 318 320 322 318 311 316 319 315 313 312 313 310 309 310 306 300 295 289 285 283 276 273 273 271 270 270 264 249 251 254 255 256 257
179 165 204 202 197 213 214 234 256 260 149 168 142 140 178 181 244 114 125 156 149 172 170 187 199 202 191 231 247 263 274 282 288 289 291 294 299 304 313 319 321 322 325 327 327 328 328 321 319 317 314 315 318 320 324 321 312 312 320 319 314 319 318 311 311 312 307 302 296 290 283 278 274 271 267 266 267 267 268 262 252 248 247 247 248 252
168 152 198 204 180 168 195 200 211 191 121 155 141 177 196 213 160 123 152 159 160 158 171 178 198 185 190 226 251 263 273 279 281 282 287 291 294 302 307 311 315 319 318 318 318 322 326 319 317 316 313 311 315 319 317 314 318 321 318 314 321 320 313 314 317 309 305 301 297 291 286 281 276 271 265 265 266 266 268 265 246 244 247 246 246 249
191 191 156 176 175 177 202 224 164 123 151 171 184 197 194 200 141 138 131 203 172 188 150 180 188 160 174 198 241 256 265 262 270 278 283 290 300 303 310 315 319 319 319 320 323 326 326 322 319 315 312 313 315 317 316 325 324 315 315 321 320 320 319 318 315 313 308 302 297 294 283 276 271 267 262 260 259 261 263 260 244 241 242 238 237 238
81 181 55 105 215 229 278 269 135 163 166 180 196 216 168 129 89 129 150 176 212 157 165 182 176 162 161 168 192 249 246 256 265 276 279 288 295 300 305 310 314 315 315 318 320 328 325 320 315 312 312 312 316 318 323 326 324 321 318 318 321 323 319 317 315 312 309 305 299 298 301 306 296 283 267 262 259 255 254 256 249 243 240 234 232 228
195 121 176 225 187 161 251 179 186 202 187 181 181 121 53 124 156 158 176 202 174 144 150 148 158 163 164 165 201 236 256 258 270 275 284 287 294 304 313 311 312 318 323 323 324 328 327 325 321 319 319 315 317 322 325 323 323 318 313 320 322 322 321 317 312 309 309 304 296 298 311 317 318 314 293 272 274 266 267 250 237 243 244 236 231 228
219 153 149 219 207 212 229 161 191 197 188 184 183 166 188 183 171 178 174 161 136 133 144 144 124 140 153 182 209 228 245 250 260 276 287 294 301 308 308 311 314 317 319 320 320 326 322 319 319 318 320 317 316 323 320 324 319 321 322 321 322 323 321 315 314 313 305 301 306 317 327 325 323 324 318 304 284 283 281 263 233 237 237 232 228 230
124 137 214 176 209 233 248 239 128 78 164 198 207 213 184 170 171 172 159 140 140 140 145 145 165 175 179 203 200 217 238 247 247 266 287 295 301 303 308 313 314 316 319 321 326 328 324 321 318 319 317 312 316 315 322 320 321 325 326 326 327 326 323 318 317 314 310 313 320 330 332 329 326 323 320 316 306 276 269 273 272 251 242 234 236 237
144 197 153 145 215 217 214 211 164 152 212 199 210 209 199 187 163 162 154 156 168 167 166 163 176 175 185 198 201 209 222 238 242 264 281 289 294 303 308 313 315 316 316 320 321 321 319 317 317 317 316 316 314 320 320 323 324 325 328 329 329 329 325 321 318 320 321 325 330 333 334 334 330 327 323 319 316 310 281 254 250 253 253 255 224 230
189 172 158 198 198 220 217 197 200 204 207 202 194 201 188 155 145 157 177 185 187 181 169 164 166 177 192 200 200 202 220 226 242 271 286 287 293 303 308 312 317 317 318 323 324 321 321 319 319 318 318 316 321 318 323 324 323 330 330 330 329 328 326 322 320 320 323 330 334 336 337 334 331 329 323 322 319 316 305 290 263 241 245 243 249 240